Retour au catalogue

STARLINK-5023

ActifCommunicationsVLEO
NORAD 53919·PAYLOAD·🇺🇸 United States

Lancé Sep 24, 2022 depuis Cape Canaveral Space Force Station

Loading…

Prochains Passages (prochaines 24 heures)

TLE

FraisSource: CelesTrak SupGP

Époque: Sep 15, 2026, 03:08 UTC

1 53919C 22119AK  26258.13104167  .00013295  00000+0  42755-3 0  2581
2 53919  53.1590 170.1756 0001487  84.7214 271.4156 15.31694105    17

Suivez STARLINK-5023 en temps réel avec AllMySat

Download on the App Store